sat.trackr.live / text

‹ back to catalog

STARLINK-33628

NORAD 63067 · 2025-035R

PAYLOAD ACTIVE UNKNOWN

§ Identity

Operator
Country
US
Launch date
2025-02-21
Launch site
AFETR
Launch vehicle
Mass (kg)
RCS (m²)

Purposes: comms

External: N2YO · Heavens-Above · Gunter

§ Orbital elements

Epoch: 2026-05-25T02:27:27.645120Z

Period
94.27 min
Inclination
42.9994°
Eccentricity
0.0000793
Mean motion
15.27593863 rev/d
Perigee alt
482.5 km
Apogee alt
483.6 km
Semi-major
6,861.1 km
B*
5.6250e-4
RAAN
75.7469°
Arg perigee
267.6150°
Mean anomaly
92.4611°
Rev number
7,141

§ Raw data

STARLINK-336281 63067U 25035R   26145.10240330  .00015255  00000+0  56250-3 0  99962 63067  42.9994  75.7469 0000793 267.6150  92.4611 15.27593863 71410

JSON: /api/v1/satellites/63067 · /tle

For live sub-satellite position, see the globe view (requires WebGL).

§ Visibility from observer

Set your observer location to see the next 7 days of passes ≥ 10°. The values pass through the URL so the page stays shareable.

No JS? Fill the form by hand. The geolocation button needs JavaScript.